Home   Weather   Chilliwack   Past weeks
Flag for Canada

Past Weather in Chilliwack, British Columbia, Canada — Yesterday and Last 2 Weeks

Now
61 °F

Refreshingly cool.


Feels Like: 61 °F
Forecast: 72 / 49 °F
Wind: 6 mph from Northeast

Location: Agassiz

Current Time: May 19, 2019 at 10:13:11 am

Latest Report: May 19, 2019 at 9:00 am


Visibility: N/A

Pressure: 29.71 "Hg

Humidity: 57%

Dew Point: 46 °F

Location of ChilliwackLocation

Past Weather in Chilliwack — Graph

°F

Chilliwack Temperature Yesterday

Maximum temperature yesterday: 72 °F (at 7:00 pm)
Minimum temperature yesterday: 49 °F (at 2:00 am)
Average temperature yesterday: 59 °F

High & Low Weather Summary for the Past Weeks

 TemperatureHumidityPressure
High83 °F (May 10, 5:00 pm)100% (May 14, 1:00 am)30.19 "Hg (May 14, 1:00 am)
Low44 °F (May 13, 5:00 am)21% (May 9, 4:00 pm)29.49 "Hg (May 16, 3:00 pm)
Average61 °F66%29.88 "Hg
* Reported May 4 9:00 am — May 19 9:00 am, Chilliwack. Weather by CustomWeather, © 2019

Note: Actual official high and low records may vary slightly from our data, if they occured in-between our weather recording intervals... More about our weather records

Advertising

Chilliwack Weather History for the Previous 24 Hours

Scroll right to see more
 ConditionsComfort  
Time TempWeatherWind HumidityBarometerVisibility
9:00 am
Sun, May 19
61 °FRefreshingly cool.6 mph57%29.71 "HgN/A
8:00 am59 °FCool.12 mph61%29.71 "HgN/A
7:00 am57 °FCool.13 mph64%29.70 "HgN/A
6:00 am56 °FCool.13 mph66%29.70 "HgN/A
5:00 am57 °FCool.13 mph64%29.69 "HgN/A
4:00 am59 °FCool.12 mph63%29.68 "HgN/A
3:00 am59 °FCool.13 mph64%29.67 "HgN/A
2:00 am59 °FCool.18 mph61%29.67 "HgN/A
1:00 am60 °FCool.15 mph63%29.67 "HgN/A
12:00 am61 °FCool.9 mph62%29.66 "HgN/A
11:00 pm
Sat, May 18
61 °FCool.8 mph63%29.66 "HgN/A
10:00 pm58 °FCool.1 mph79%29.65 "HgN/A
9:00 pm61 °FCool.3 mph68%29.64 "HgN/A
8:00 pm66 °FMild.2 mph62%29.63 "HgN/A
7:00 pm72 °FMild.2 mph39%29.64 "HgN/A
6:00 pm71 °FMild.5 mph44%29.65 "HgN/A
5:00 pm71 °FMild.2 mph40%29.67 "HgN/A
4:00 pm70 °FMild.2 mph40%29.69 "HgN/A
3:00 pm69 °FMild.3 mph43%29.72 "HgN/A
2:00 pm67 °FMild.3 mph45%29.74 "HgN/A
1:00 pm64 °FMild.5 mph52%29.77 "HgN/A
12:00 pm63 °FMild.3 mph45%29.79 "HgN/A
11:00 am60 °FCool.5 mph60%29.83 "HgN/A
10:00 am57 °FCool.2 mph72%29.85 "HgN/A
Weather by CustomWeather, © 2019

See weather overview